Date,TemperatureHighF,TemperatureAvgF,TemperatureLowF,DewpointHighF,DewpointAvgF,DewpointLowF,HumidityHigh,HumidityAvg,HumidityLow,PressureMaxIn,PressureMinIn,WindSpeedMaxMPH,WindSpeedAvgMPH,GustSpeedMaxMPH,PrecipitationSumIn
2012-1-1,66,59,53,-100,-100,-100,0,0,100,30.18,30.09,17,-50,23,0.00
2012-1-2,56,55,53,-100,-100,-100,0,0,100,30.33,30.17,17,-6,25,0.00
2012-1-3,55,52,50,-100,-100,-100,0,0,100,30.37,30.29,15,8,17,0.00
2012-1-4,64,56,53,-100,-100,-100,0,0,100,30.40,30.30,31,-123,36,0.00
2012-1-5,57,55,53,-100,-100,-100,0,0,100,30.33,30.18,30,18,33,0.00
2012-1-6,54,53,51,-100,-100,-100,0,0,100,30.22,30.14,27,20,33,0.00
2012-1-7,57,54,51,-100,-100,-100,0,0,100,30.27,30.16,24,14,29,0.00
2012-1-8,62,56,51,-100,-100,-100,0,0,100,30.24,30.17,10,-102,12,0.00
2012-1-9,68,55,49,-100,-100,-100,0,0,100,30.25,30.16,11,-241,15,0.00
2012-1-10,61,54,49,-100,-100,-100,0,0,100,30.19,30.10,15,-56,18,0.00
2012-1-11,60,52,48,-100,-100,-100,0,0,100,30.15,30.05,15,-182,18,0.00
2012-1-12,60,53,47,-100,-100,-100,0,0,100,30.13,30.05,14,-42,19,0.00
2012-1-13,71,60,51,-100,-100,-100,0,0,100,30.21,30.13,10,-130,13,0.00
2012-1-14,62,55,52,-100,-100,-100,0,0,100,30.20,30.11,15,-252,19,0.00
2012-1-15,52,51,49,-100,-100,-100,0,0,100,30.20,30.04,37,21,48,0.00
2012-1-16,49,48,47,-100,-100,-100,0,0,100,30.35,30.20,30,19,35,0.00
2012-1-17,51,47,43,-100,-100,-100,0,0,100,30.44,30.35,16,-193,21,0.00
2012-1-18,54,51,46,-100,-100,-100,0,0,100,30.42,30.27,11,-100,13,0.00
2012-1-19,54,53,52,-100,-100,-100,0,0,100,30.27,30.03,19,13,32,0.00
2012-1-20,58,55,54,-100,-100,-100,0,0,100,30.03,29.70,23,16,37,0.00
2012-1-21,57,53,49,-100,-100,-100,0,0,100,30.16,29.73,25,-15,37,0.00
2012-1-22,55,53,50,-100,-100,-100,0,0,100,30.17,29.74,30,15,40,0.00
2012-1-23,58,54,51,-100,-100,-100,0,0,100,30.18,29.64,31,18,45,0.00
2012-1-24,54,52,50,-100,-100,-100,0,0,100,30.45,30.17,17,-36,22,0.00
2012-1-25,58,54,52,-100,-100,-100,0,0,100,30.46,30.36,13,-57,16,0.00
2012-1-26,57,54,52,-100,-100,-100,0,0,100,30.37,30.26,27,13,31,0.00
2012-1-27,54,52,50,-100,-100,-100,0,0,100,30.30,30.22,19,-68,24,0.00
2012-1-28,62,53,46,-100,-100,-100,0,0,100,30.34,30.26,9,-201,12,0.00
2012-1-29,61,54,51,-100,-100,-100,0,0,100,30.28,30.14,16,-50,19,0.00
2012-1-30,53,52,50,-100,-100,-100,0,0,100,30.15,30.04,23,14,26,0.00
2012-1-31,51,50,47,-100,-100,-100,0,0,100,30.22,30.09,26,-13,31,0.00
2012-2-1,53,52,51,-100,-100,-100,0,0,100,30.31,30.18,20,3,23,0.00
2012-2-2,57,52,49,-100,-100,-100,0,0,100,30.26,29.99,11,6,13,0.00
2012-2-3,61,52,48,-100,-100,-100,0,0,100,30.06,29.99,19,-135,23,0.00
2012-2-4,61,55,50,-100,-100,-100,0,0,100,30.11,30.04,9,-180,12,0.00
2012-2-5,64,58,50,-100,-100,-100,0,0,100,30.10,29.97,5,-119,9,0.00
2012-2-6,58,55,54,-100,-100,-100,0,0,100,29.98,29.79,21,10,26,0.00
2012-2-7,56,53,52,-100,-100,-100,0,0,100,30.13,29.78,26,-38,31,0.00
2012-2-8,61,54,50,-100,-100,-100,0,0,100,30.26,30.11,14,-316,16,0.00
2012-2-9,64,56,50,-100,-100,-100,0,0,100,30.27,30.16,15,-73,17,0.00
2012-2-10,55,53,50,-100,-100,-100,0,0,100,30.20,30.10,13,-57,19,0.00
2012-2-11,52,51,50,-100,-100,-100,0,0,100,30.11,30.04,29,19,34,0.00
2012-2-12,52,50,47,-100,-100,-100,0,0,100,30.10,29.98,27,-18,34,0.00
2012-2-13,52,50,48,-100,-100,-100,0,0,100,30.04,29.93,38,28,47,0.00
2012-2-14,51,50,49,-100,-100,-100,0,0,100,30.13,30.03,31,20,36,0.00
2012-2-15,52,49,46,-100,-100,-100,0,0,100,30.20,30.08,32,20,39,0.00
2012-2-16,56,51,49,-100,-100,-100,0,0,100,30.29,30.20,22,11,27,0.00
2012-2-17,52,51,49,-100,-100,-100,0,0,100,30.29,30.21,23,15,28,0.00
2012-2-18,52,50,48,-100,-100,-100,0,0,100,30.23,30.15,39,27,49,0.00
2012-2-19,50,48,47,-100,-100,-100,0,0,100,30.18,30.09,33,16,39,0.00
2012-2-20,54,50,48,-100,-100,-100,0,0,100,30.24,30.09,17,8,20,0.00
2012-2-21,52,50,47,-100,-100,-100,0,0,100,30.33,30.23,26,13,30,0.00
2012-2-22,55,52,51,-100,-100,-100,0,0,100,30.31,30.13,35,23,45,0.00
2012-2-23,52,51,50,-100,-100,-100,0,0,100,30.14,30.01,32,21,38,0.00
2012-2-24,59,52,49,-100,-100,-100,0,0,100,30.23,30.00,34,-56,42,0.00
2012-2-25,51,49,47,-100,-100,-100,0,0,100,30.38,30.21,38,27,47,0.00
2012-2-26,47,46,43,-100,-100,-100,0,0,100,30.22,29.86,28,18,34,0.00
2012-2-27,47,45,41,-100,-100,-100,0,0,100,29.99,29.84,33,20,43,0.00
2012-2-28,50,48,46,-100,-100,-100,0,0,100,30.24,29.99,28,13,34,0.00
2012-2-29,51,49,47,-100,-100,-100,0,0,100,30.26,30.04,18,8,34,0.00
2012-3-1,51,49,47,-100,-100,-100,0,0,100,30.28,30.22,25,14,34,0.00
2012-3-2,55,49,46,-100,-100,-100,0,0,100,30.37,30.28,21,-12,24,0.00
2012-3-3,60,52,45,-100,-100,-100,0,0,100,30.35,30.27,11,-228,13,0.00
2012-3-4,64,52,46,-100,-100,-100,0,0,100,30.23,30.10,17,-203,21,0.00
2012-3-5,49,46,44,-100,-100,-100,0,0,100,30.13,30.05,30,18,35,0.00
2012-3-6,50,48,46,-100,-100,-100,0,0,100,30.11,29.99,42,28,51,0.00
2012-3-7,51,47,43,-100,-100,-100,0,0,100,30.21,30.11,23,-17,26,0.00
2012-3-8,57,49,43,-100,-100,-100,0,0,100,30.36,30.20,13,-146,17,0.00
2012-3-9,57,48,42,-100,-100,-100,0,0,100,30.35,30.18,20,-62,25,0.00
2012-3-10,52,49,47,-100,-100,-100,0,0,100,30.18,30.04,20,8,23,0.00
2012-3-11,53,50,46,-100,-100,-100,0,0,100,30.09,30.02,12,-127,17,0.00
2012-3-12,52,49,45,-100,-100,-100,0,0,100,30.06,29.92,21,-56,33,0.00
2012-3-13,52,51,51,-100,-100,-100,0,0,100,29.96,29.84,22,14,35,0.00
2012-3-14,52,52,51,-100,-100,-100,0,0,100,30.12,29.95,21,0,26,0.00
2012-3-15,53,52,51,-100,-100,-100,0,0,100,30.16,30.06,15,6,19,0.00
2012-3-16,53,52,49,-100,-100,-100,0,0,100,30.07,29.74,19,-28,26,0.00
2012-3-17,49,47,44,-100,-100,-100,0,0,100,29.75,29.57,34,-5,42,0.00
2012-3-18,48,47,45,-100,-100,-100,0,0,100,29.97,29.67,34,24,44,0.00
2012-3-19,50,47,43,-100,-100,-100,0,0,100,30.11,29.96,15,-30,19,0.00
2012-3-20,53,50,48,-100,-100,-100,0,0,100,30.21,30.10,11,-104,15,0.00
2012-3-21,58,53,50,-100,-100,-100,0,0,100,30.20,30.01,6,-130,11,0.00
2012-3-22,52,49,48,-100,-100,-100,0,0,100,30.04,29.97,30,9,36,0.00
2012-3-23,51,49,45,-100,-100,-100,0,0,100,30.09,29.87,25,10,32,0.00
2012-3-24,51,46,43,-100,-100,-100,0,0,100,29.92,29.81,27,10,40,0.00
2012-3-25,52,48,45,-100,-100,-100,0,0,100,29.92,29.79,20,-5,25,0.00
2012-3-26,52,50,46,-100,-100,-100,0,0,100,30.09,29.91,21,6,32,0.00
2012-3-27,53,52,51,-100,-100,-100,0,0,100,30.00,29.85,32,21,46,0.00
2012-3-28,56,53,51,-100,-100,-100,0,0,100,30.14,29.93,12,-10,22,0.00
2012-3-29,53,52,51,-100,-100,-100,0,0,100,30.14,30.08,15,9,18,0.00
2012-3-30,54,53,53,-100,-100,-100,0,0,100,30.11,29.89,17,7,25,0.00
2012-3-31,55,52,48,-100,-100,-100,0,0,100,30.04,29.71,31,15,39,0.00
2012-4-1,52,51,49,-100,-100,-100,0,0,100,30.32,30.04,34,23,40,0.00
2012-4-2,55,51,48,-100,-100,-100,0,0,100,30.30,30.09,25,13,29,0.00
2012-4-3,54,51,49,-100,-100,-100,0,0,100,30.12,30.04,27,-39,37,0.00
2012-4-4,51,50,48,-100,-100,-100,0,0,100,30.24,30.12,28,19,33,0.00
2012-4-5,49,48,46,-100,-100,-100,0,0,100,30.22,30.14,32,24,42,0.00
2012-4-6,50,48,46,-100,-100,-100,0,0,100,30.30,30.19,23,16,27,0.00
2012-4-7,54,49,46,-100,-100,-100,0,0,100,30.20,30.06,13,-83,15,0.00
2012-4-8,54,50,44,-100,-100,-100,0,0,100,30.10,30.01,9,-205,13,0.00
2012-4-9,55,52,49,-100,-100,-100,0,0,100,30.04,29.85,19,-70,27,0.00
2012-4-10,53,52,51,-100,-100,-100,0,0,100,29.89,29.83,22,-20,33,0.00
2012-4-11,55,53,51,-100,-100,-100,0,0,100,29.96,29.82,21,-2,29,0.00
2012-4-12,54,52,49,-100,-100,-100,0,0,100,30.03,29.76,23,10,35,0.00
2012-4-13,52,50,47,-100,-100,-100,0,0,100,29.91,29.72,32,19,39,0.00
2012-4-14,53,51,49,-100,-100,-100,0,0,100,30.14,29.91,30,24,37,0.00
2012-4-15,53,51,49,-100,-100,-100,0,0,100,30.26,30.14,25,-5,29,0.00
2012-4-16,55,52,50,-100,-100,-100,0,0,100,30.27,30.21,13,-14,17,0.00
2012-4-17,55,51,52,-100,-100,-100,0,0,100,30.22,30.12,18,-56,23,0.00
2012-4-18,56,53,51,-100,-100,-100,0,0,100,30.19,30.12,23,18,27,0.00
2012-4-19,58,54,53,-100,-100,-100,0,0,100,30.20,30.10,28,6,34,0.00
2012-4-20,58,53,51,-100,-100,-100,0,0,100,30.11,29.98,27,19,33,0.00
2012-4-21,55,52,49,-100,-100,-100,0,0,100,30.01,29.88,25,13,30,0.00
2012-4-22,53,51,47,-100,-100,-100,0,0,100,29.96,29.89,13,-7,18,0.00
2012-4-23,55,54,53,-100,-100,-100,0,0,100,30.01,29.92,18,11,23,0.00
2012-4-24,58,56,54,-100,-100,-100,0,0,100,30.07,29.99,13,-1,19,0.00
2012-4-25,58,56,55,-100,-100,-100,0,0,100,30.03,29.79,13,6,18,0.00
2012-4-26,56,54,53,-100,-100,-100,0,0,100,30.23,29.80,21,12,27,0.00
2012-4-27,54,53,51,-100,-100,-100,0,0,100,30.27,30.17,31,22,41,0.00
2012-4-28,54,52,51,-100,-100,-100,0,0,100,30.18,29.93,30,25,37,0.00
2012-4-29,53,51,50,-100,-100,-100,0,0,100,29.96,29.89,30,22,34,0.00
2012-4-30,54,52,50,-100,-100,-100,0,0,100,30.01,29.93,34,21,43,0.00
2012-5-1,52,51,49,-100,-100,-100,0,0,100,29.97,29.91,39,29,51,0.00
2012-5-2,52,50,48,-100,-100,-100,0,0,100,30.01,29.91,32,19,37,0.00
2012-5-3,52,51,50,-100,-100,-100,0,0,100,30.12,29.96,17,-8,27,0.00
2012-5-4,53,51,49,-100,-100,-100,0,0,100,30.24,30.11,31,22,40,0.00
2012-5-5,53,51,49,-100,-100,-100,0,0,100,30.24,30.08,28,21,34,0.00
2012-5-6,62,54,51,-100,-100,-100,0,0,100,30.11,30.02,25,19,34,0.00
2012-5-7,56,53,50,-100,-100,-100,0,0,100,30.06,29.97,30,15,36,0.00
2012-5-8,54,52,50,-100,-100,-100,0,0,100,30.01,29.94,28,14,35,0.00
2012-5-9,53,52,51,-100,-100,-100,0,0,100,29.99,29.90,36,25,47,0.00
2012-5-10,59,53,50,-100,-100,-100,0,0,100,29.95,29.88,31,14,37,0.00
2012-5-11,55,52,48,-100,-100,-100,0,0,100,30.01,29.88,13,-65,18,0.00
2012-5-12,53,50,48,-100,-100,-100,0,0,100,30.09,30.00,13,6,17,0.00
2012-5-13,55,53,50,-100,-100,-100,0,0,100,30.11,30.06,13,0,19,0.00
2012-5-14,61,55,53,-100,-100,-100,0,0,100,30.11,30.07,19,7,24,0.00
2012-5-15,54,52,50,-100,-100,-100,0,0,100,30.09,30.04,19,15,28,0.00
2012-5-16,53,51,49,-100,-100,-100,0,0,100,30.07,29.97,20,13,24,0.00
2012-5-17,54,52,51,-100,-100,-100,0,0,100,29.98,29.88,35,27,46,0.00
2012-5-18,53,52,50,-100,-100,-100,0,0,100,30.01,29.91,34,25,41,0.00
2012-5-19,55,52,50,-100,-100,-100,0,0,100,30.02,29.94,28,22,36,0.00
2012-5-20,55,53,51,-100,-100,-100,0,0,100,30.04,29.98,27,18,32,0.00
2012-5-21,55,53,50,-100,-100,-100,0,0,100,30.14,30.02,20,3,25,0.00
2012-5-22,56,54,52,-100,-100,-100,0,0,100,30.18,30.09,28,19,37,0.00
2012-5-23,55,53,52,-100,-100,-100,0,0,100,30.10,29.97,35,27,43,0.00
2012-5-24,54,52,51,-100,-100,-100,0,0,100,29.97,29.80,36,29,53,0.00
2012-5-25,54,52,50,-100,-100,-100,0,0,100,29.86,29.77,30,24,39,0.00
2012-5-26,54,52,50,-100,-100,-100,0,0,100,30.09,29.85,29,22,36,0.00
2012-5-27,54,52,51,-100,-100,-100,0,0,100,30.18,30.09,20,13,27,0.00
2012-5-28,55,53,50,-100,-100,-100,0,0,100,30.10,30.04,22,15,30,0.00
2012-5-29,53,52,50,-100,-100,-100,0,0,100,30.09,30.03,30,19,35,0.00
2012-5-30,54,52,49,-100,-100,-100,0,0,100,30.13,30.05,30,18,35,0.00
2012-5-31,56,53,50,-100,-100,-100,0,0,100,30.06,29.85,32,12,36,0.00
2012-6-1,55,53,51,-100,-100,-100,0,0,100,29.88,29.79,35,27,43,0.00
2012-6-2,54,52,51,-100,-100,-100,0,0,100,29.99,29.86,30,22,38,0.00
2012-6-3,57,54,50,-100,-100,-100,0,0,100,29.99,29.94,26,12,31,0.00
2012-6-4,57,54,52,-100,-100,-100,0,0,100,30.14,29.90,21,-4,28,0.00
2012-6-5,55,53,51,-100,-100,-100,0,0,100,30.22,30.13,30,20,37,0.00
2012-6-6,54,52,50,-100,-100,-100,0,0,100,30.17,30.00,30,25,38,0.00
2012-6-7,57,53,51,-100,-100,-100,0,0,100,30.06,29.98,30,22,38,0.00
2012-6-8,55,53,51,-100,-100,-100,0,0,100,30.04,29.96,38,27,49,0.00
2012-6-9,55,52,50,-100,-100,-100,0,0,100,30.04,29.91,36,26,43,0.00
2012-6-10,63,55,51,-100,-100,-100,0,0,100,29.94,29.88,26,19,31,0.00
2012-6-11,55,54,51,-100,-100,-100,0,0,100,30.00,29.89,36,20,41,0.00
2012-6-12,55,53,51,-100,-100,-100,0,0,100,30.01,29.93,35,25,43,0.00
2012-6-13,54,52,50,-100,-100,-100,0,0,100,29.94,29.76,35,26,43,0.00
2012-6-14,55,52,50,-100,-100,-100,0,0,100,29.85,29.78,39,26,49,0.00
2012-6-15,55,52,50,-100,-100,-100,0,0,100,29.85,29.78,38,22,49,0.00
2012-6-16,62,55,51,-100,-100,-100,0,0,100,29.87,29.79,19,-55,22,0.00
2012-6-17,57,53,51,-100,-100,-100,0,0,100,29.95,29.79,18,1,24,0.00
2012-6-18,56,52,49,-100,-100,-100,0,0,100,29.94,29.84,15,5,21,0.00
2012-6-19,59,53,50,-100,-100,-100,0,0,100,29.97,29.85,20,1,23,0.00
2012-6-20,62,54,51,-100,-100,-100,0,0,100,29.88,29.82,25,4,31,0.00
2012-6-21,56,53,50,-100,-100,-100,0,0,100,29.99,29.82,25,14,31,0.00
2012-6-22,55,54,52,-100,-100,-100,0,0,100,29.99,29.90,11,5,14,0.00
2012-6-23,58,55,51,-100,-100,-100,0,0,100,29.96,29.88,12,6,15,0.00
2012-6-24,59,55,51,-100,-100,-100,0,0,100,30.08,29.95,12,-8,18,0.00
2012-6-25,61,56,52,-100,-100,-100,0,0,100,30.11,30.05,15,-79,19,0.00
2012-6-26,58,56,54,-100,-100,-100,0,0,100,30.09,29.92,29,18,35,0.00
2012-6-27,57,56,54,-100,-100,-100,0,0,100,29.97,29.89,26,19,33,0.00
2012-6-28,57,55,54,-100,-100,-100,0,0,100,30.11,29.96,21,7,27,0.00
2012-6-29,62,57,53,-100,-100,-100,0,0,100,30.14,30.06,14,-38,20,0.00
2012-6-30,64,59,55,-100,-100,-100,0,0,100,30.06,29.97,16,-96,19,0.00
2012-7-1,59,58,56,-100,-100,-100,0,0,100,29.99,29.88,25,13,30,0.00
2012-7-2,57,56,54,-100,-100,-100,0,0,100,29.93,29.86,36,25,46,0.00
2012-7-3,56,53,53,-100,-100,-100,0,0,100,29.94,29.83,33,8,42,0.00
2012-7-4,55,53,51,-100,-100,-100,0,0,100,29.91,29.83,17,8,23,0.00
2012-7-5,58,54,52,-100,-100,-100,0,0,100,30.02,29.89,26,16,33,0.00
2012-7-6,56,53,49,-100,-100,-100,0,0,100,30.06,29.99,21,12,25,0.00
2012-7-7,55,52,49,-100,-100,-100,0,0,100,30.02,29.98,20,11,26,0.00
2012-7-8,55,53,51,-100,-100,-100,0,0,100,30.07,29.99,23,15,29,0.00
2012-7-9,55,53,51,-100,-100,-100,0,0,100,30.07,29.97,32,18,37,0.00
2012-7-10,53,51,48,-100,-100,-100,0,0,100,29.98,29.87,26,13,31,0.00
2012-7-11,53,51,49,-100,-100,-100,0,0,100,29.93,29.85,20,10,24,0.00
2012-7-12,55,52,50,-100,-100,-100,0,0,100,29.90,29.83,30,18,34,0.00
2012-7-13,56,53,51,-100,-100,-100,0,0,100,29.96,29.84,31,10,37,0.00
2012-7-14,55,52,50,-100,-100,-100,0,0,100,29.98,29.88,12,-15,19,0.00
2012-7-15,55,52,51,-100,-100,-100,0,0,100,29.95,29.87,11,6,17,0.00
2012-7-16,56,53,50,-100,-100,-100,0,0,100,29.93,29.84,10,-2,15,0.00
2012-7-17,60,56,54,-100,-100,-100,0,0,100,30.02,29.91,8,-18,12,0.00
2012-7-18,60,56,53,-100,-100,-100,0,0,100,30.05,30.00,18,-187,20,0.00
2012-7-19,61,57,53,-100,-100,-100,0,0,100,30.08,29.99,18,-14,22,0.00
2012-7-20,58,57,55,-100,-100,-100,0,0,100,30.11,30.00,35,21,41,0.00
2012-7-21,57,55,54,-100,-100,-100,0,0,100,30.01,29.91,35,16,40,0.00
2012-7-22,58,54,53,-100,-100,-100,0,0,100,29.96,29.88,23,11,31,0.00
2012-7-23,56,54,53,-100,-100,-100,0,0,100,29.96,29.89,19,4,24,0.00
2012-7-24,58,56,55,-100,-100,-100,0,0,100,30.00,29.95,15,10,19,0.00
2012-7-25,58,56,53,-100,-100,-100,0,0,100,30.03,29.97,11,5,16,0.00
2012-7-26,58,55,53,-100,-100,-100,0,0,100,30.03,29.96,8,-176,11,0.00
2012-7-27,57,54,52,-100,-100,-100,0,0,100,30.05,29.99,20,-30,23,0.00
2012-7-28,56,54,53,-100,-100,-100,0,0,100,30.09,30.01,32,22,39,0.00
2012-7-29,57,54,52,-100,-100,-100,0,0,100,30.06,29.98,29,22,37,0.00
2012-7-30,57,54,51,-100,-100,-100,0,0,100,30.01,29.91,30,14,37,0.00
2012-7-31,57,54,51,-100,-100,-100,0,0,100,30.02,29.93,25,12,31,0.00
2012-8-1,55,54,53,-100,-100,-100,0,0,100,30.09,29.99,17,8,22,0.00
2012-8-2,56,53,52,-100,-100,-100,0,0,100,30.03,29.93,16,0,19,0.00
2012-8-3,55,53,51,-100,-100,-100,0,0,100,29.93,29.86,11,-10,16,0.00
2012-8-4,59,55,50,-100,-100,-100,0,0,100,29.99,29.86,14,5,19,0.00
2012-8-5,62,58,57,-100,-100,-100,0,0,100,30.11,29.98,13,7,17,0.00
2012-8-6,60,58,56,-100,-100,-100,0,0,100,30.16,30.07,19,13,24,0.00
2012-8-7,59,57,54,-100,-100,-100,0,0,100,30.10,29.99,32,22,38,0.00
2012-8-8,57,56,54,-100,-100,-100,0,0,100,30.03,29.92,31,23,38,0.00
2012-8-9,55,53,51,-100,-100,-100,0,0,100,29.98,29.84,32,20,38,0.00
2012-8-10,54,52,50,-100,-100,-100,0,0,100,29.89,29.78,29,18,36,0.00
2012-8-11,53,51,50,-100,-100,-100,0,0,100,29.86,29.77,15,8,20,0.00
2012-8-12,55,51,50,-100,-100,-100,0,0,100,29.90,29.83,14,-47,17,0.00
2012-8-13,57,52,49,-100,-100,-100,0,0,100,29.89,29.81,12,-2,14,0.00
2012-8-14,57,54,51,-100,-100,-100,0,0,100,29.86,29.81,9,-10,14,0.00
2012-8-15,59,56,55,-100,-100,-100,0,0,100,29.93,29.83,6,-68,8,0.00
2012-8-16,58,56,54,-100,-100,-100,0,0,100,29.99,29.93,15,-21,20,0.00
2012-8-17,57,55,54,-100,-100,-100,0,0,100,30.03,29.95,20,12,26,0.00
2012-8-18,56,55,53,-100,-100,-100,0,0,100,30.00,29.91,28,17,33,0.00
2012-8-19,56,54,52,-100,-100,-100,0,0,100,30.01,29.93,23,16,28,0.00
2012-8-20,55,53,50,-100,-100,-100,0,0,100,29.98,29.89,25,14,31,0.00
2012-8-21,57,53,51,-100,-100,-100,0,0,100,29.96,29.88,28,10,35,0.00
2012-8-22,57,53,50,-100,-100,-100,0,0,100,29.97,29.89,21,-12,27,0.00
2012-8-23,55,53,50,-100,-100,-100,0,0,100,29.98,29.89,10,-97,12,0.00
2012-8-24,55,53,51,-100,-100,-100,0,0,100,29.93,29.88,11,-23,16,0.00
2012-8-25,56,52,50,-100,-100,-100,0,0,100,29.91,29.85,19,-8,26,0.00
2012-8-26,61,57,54,-100,-100,-100,0,0,100,30.02,29.87,16,11,23,0.00
2012-8-27,59,57,55,-100,-100,-100,0,0,100,30.08,29.97,22,-4,26,0.00
2012-8-28,59,57,55,-100,-100,-100,0,0,100,30.05,29.97,30,21,37,0.00
2012-8-29,59,56,54,-100,-100,-100,0,0,100,29.97,29.80,27,16,33,0.00
2012-8-30,56,53,51,-100,-100,-100,0,0,100,29.87,29.80,18,7,23,0.00
2012-8-31,58,56,54,-100,-100,-100,0,0,100,29.98,29.86,23,13,28,0.00
2012-9-1,57,54,52,-100,-100,-100,0,0,100,30.06,29.96,28,3,34,0.00
2012-9-2,56,53,51,-100,-100,-100,0,0,100,30.02,29.94,14,-9,20,0.00
2012-9-3,57,53,50,-100,-100,-100,0,0,100,30.01,29.93,13,-2,18,0.00
2012-9-4,57,53,50,-100,-100,-100,0,0,100,30.05,29.99,11,-16,16,0.00
2012-9-5,58,54,52,-100,-100,-100,0,0,100,30.02,29.95,7,-26,13,0.00
2012-9-6,58,56,55,-100,-100,-100,0,0,100,30.04,29.97,11,-39,15,0.00
2012-9-7,58,56,54,-100,-100,-100,0,0,100,30.12,30.04,19,8,22,0.00
2012-9-8,56,56,54,-100,-100,-100,0,0,100,30.10,30.00,28,18,35,0.00
2012-9-9,60,57,55,-100,-100,-100,0,0,100,30.01,29.91,33,23,40,0.00
2012-9-10,58,54,51,-100,-100,-100,0,0,100,29.96,29.84,28,13,34,0.00
2012-9-11,58,55,52,-100,-100,-100,0,0,100,29.98,29.85,23,-20,29,0.00
2012-9-12,57,55,53,-100,-100,-100,0,0,100,30.10,29.97,12,6,17,0.00
2012-9-13,55,53,51,-100,-100,-100,0,0,100,30.14,30.06,15,8,18,0.00
2012-9-14,57,55,54,-100,-100,-100,0,0,100,30.14,30.05,17,10,21,0.00
2012-9-15,55,53,51,-100,-100,-100,0,0,100,30.14,30.03,19,13,25,0.00
2012-9-16,56,52,51,-100,-100,-100,0,0,100,30.08,30.02,11,-2,14,0.00
2012-9-17,58,55,52,-100,-100,-100,0,0,100,30.09,30.03,10,-53,15,0.00
2012-9-18,58,55,52,-100,-100,-100,0,0,100,30.14,30.06,19,11,23,0.00
2012-9-19,58,56,55,-100,-100,-100,0,0,100,30.14,30.06,25,16,31,0.00
2012-9-20,57,55,53,-100,-100,-100,0,0,100,30.11,30.00,34,24,39,0.00
2012-9-21,57,55,53,-100,-100,-100,0,0,100,30.02,29.90,28,20,34,0.00
2012-9-22,56,53,51,-100,-100,-100,0,0,100,29.96,29.90,26,-14,31,0.00
2012-9-23,53,52,50,-100,-100,-100,0,0,100,30.00,29.91,11,6,14,0.00
2012-9-24,55,53,51,-100,-100,-100,0,0,100,30.00,29.92,11,-79,15,0.00
2012-9-25,55,53,52,-100,-100,-100,0,0,100,29.96,29.88,22,1,29,0.00
2012-9-26,54,52,51,-100,-100,-100,0,0,100,29.92,29.87,16,8,21,0.00
2012-9-27,53,51,50,-100,-100,-100,0,0,100,29.96,29.88,6,-46,10,0.00
2012-9-28,55,53,50,-100,-100,-100,0,0,100,30.00,29.89,8,-38,10,0.00
2012-9-29,55,52,51,-100,-100,-100,0,0,100,30.07,29.98,14,-29,17,0.00
2012-9-30,60,54,50,-100,-100,-100,0,0,100,30.09,29.99,17,-42,21,0.00
2012-10-1,72,62,55,-100,-100,-100,0,0,100,30.01,29.88,22,-40,26,0.00
2012-10-2,75,65,59,-100,-100,-100,0,0,100,29.89,29.79,21,-5,27,0.00
2012-10-3,74,60,57,-100,-100,-100,0,0,100,30.01,29.80,16,2,21,0.00
2012-10-4,60,59,58,-100,-100,-100,0,0,100,30.16,30.01,11,6,17,0.00
2012-10-5,61,59,56,-100,-100,-100,0,0,100,30.17,30.09,8,3,11,0.00
2012-10-6,62,58,53,-100,-100,-100,0,0,100,30.09,30.00,12,-16,15,0.00
2012-10-7,61,57,55,-100,-100,-100,0,0,100,30.03,29.98,13,-14,17,0.00
2012-10-8,62,58,54,-100,-100,-100,0,0,100,30.06,30.01,12,-129,14,0.00
2012-10-9,62,58,55,-100,-100,-100,0,0,100,30.04,29.96,17,-113,21,0.00
2012-10-10,58,57,56,-100,-100,-100,0,0,100,29.98,29.92,21,11,25,0.00
2012-10-11,56,55,54,-100,-100,-100,0,0,100,29.98,29.90,15,8,19,0.00
2012-10-12,60,57,54,-100,-100,-100,0,0,100,30.24,29.96,9,-33,11,0.00
2012-10-13,64,58,54,-100,-100,-100,0,0,100,30.32,30.20,19,-84,25,0.00
2012-10-14,60,57,55,-100,-100,-100,0,0,100,30.24,30.10,24,11,31,0.00
2012-10-15,64,59,55,-100,-100,-100,0,0,100,30.11,29.98,27,15,32,0.00
2012-10-16,61,60,58,-100,-100,-100,0,0,100,30.02,29.90,28,19,32,0.00
2012-10-17,64,58,55,-100,-100,-100,0,0,100,29.93,29.84,21,-60,28,0.00
2012-10-18,77,65,56,-100,-100,-100,0,0,100,30.04,29.87,17,-181,23,0.00
2012-10-19,61,59,56,-100,-100,-100,0,0,100,30.07,29.95,15,7,19,0.00
2012-10-20,59,56,55,-100,-100,-100,0,0,100,29.95,29.82,33,24,41,0.00
2012-10-21,57,55,53,-100,-100,-100,0,0,100,29.95,29.84,33,-45,39,0.00
2012-10-22,59,55,52,-100,-100,-100,0,0,100,29.94,29.70,21,6,27,0.00
2012-10-23,58,55,51,-100,-100,-100,0,0,100,30.06,29.93,17,-87,21,0.00
2012-10-24,60,56,53,-100,-100,-100,0,0,100,30.21,30.01,11,4,13,0.00
2012-10-25,62,56,54,-100,-100,-100,0,0,100,30.27,30.18,19,-4,23,0.00
2012-10-26,60,57,54,-100,-100,-100,0,0,100,30.25,30.11,25,14,30,0.00
2012-10-27,63,58,55,-100,-100,-100,0,0,100,30.11,29.97,25,18,29,0.00
2012-10-28,57,55,53,-100,-100,-100,0,0,100,30.03,29.98,26,16,29,0.00
2012-10-29,58,55,53,-100,-100,-100,0,0,100,30.13,30.02,23,13,26,0.00
2012-10-30,59,55,52,-100,-100,-100,0,0,100,30.09,29.99,11,-116,14,0.00
2012-10-31,58,57,56,-100,-100,-100,0,0,100,30.02,29.97,18,-4,28,0.00
2012-11-1,61,57,55,-100,-100,-100,0,0,100,30.08,30.00,13,-93,15,0.00
2012-11-2,60,56,52,-100,-100,-100,0,0,100,30.10,30.05,9,-121,12,0.00
2012-11-3,66,59,55,-100,-100,-100,0,0,100,30.16,30.07,19,-119,23,0.00
2012-11-4,67,60,57,-100,-100,-100,0,0,100,30.22,30.14,18,-88,22,0.00
2012-11-5,77,67,57,-100,-100,-100,0,0,100,30.15,30.04,14,-319,16,0.00
2012-11-6,75,64,53,-100,-100,-100,0,0,100,30.07,30.01,13,-288,18,0.00
2012-11-7,59,56,54,-100,-100,-100,0,0,100,30.07,29.94,32,13,41,0.00
2012-11-8,58,54,49,-100,-100,-100,0,0,100,29.97,29.90,31,13,37,0.00
2012-11-9,54,51,47,-100,-100,-100,0,0,100,30.01,29.90,18,-18,27,0.00
2012-11-10,55,54,52,-100,-100,-100,0,0,100,30.26,30.00,20,15,25,0.00
2012-11-11,58,52,47,-100,-100,-100,0,0,100,30.39,30.26,10,-185,13,0.00
2012-11-12,60,54,50,-100,-100,-100,0,0,100,30.39,30.27,11,-101,12,0.00
2012-11-13,66,58,52,-100,-100,-100,0,0,100,30.28,30.10,17,-113,20,0.00
2012-11-14,67,60,56,-100,-100,-100,0,0,100,30.12,30.00,16,-16,18,0.00
2012-11-15,65,61,58,-100,-100,-100,0,0,100,30.02,29.95,18,-34,25,0.00
2012-11-16,61,59,58,-100,-100,-100,0,0,100,30.00,29.84,24,13,30,0.00
2012-11-17,61,59,56,-100,-100,-100,0,0,100,30.02,29.77,26,11,34,0.00
2012-11-18,58,56,53,-100,-100,-100,0,0,100,30.17,30.01,13,-48,20,0.00
2012-11-19,59,58,57,-100,-100,-100,0,0,100,30.23,30.14,21,15,28,0.00
2012-11-20,60,59,57,-100,-100,-100,0,0,100,30.14,29.99,23,14,32,0.00
2012-11-21,61,58,56,-100,-100,-100,0,0,100,30.22,30.04,18,10,23,0.00
2012-11-22,59,55,51,-100,-100,-100,0,0,100,30.27,30.20,14,7,18,0.00
2012-11-23,66,57,54,-100,-100,-100,0,0,100,30.27,30.18,15,9,18,0.00
2012-11-24,61,57,56,-100,-100,-100,0,0,100,30.19,30.06,25,13,28,0.00
2012-11-25,57,56,55,-100,-100,-100,0,0,100,30.06,29.94,26,14,33,0.00
2012-11-26,56,54,52,-100,-100,-100,0,0,100,30.08,29.98,15,-1,17,0.00
2012-11-27,60,58,56,-100,-100,-100,0,0,100,30.11,29.96,22,14,30,0.00
2012-11-28,60,59,56,-100,-100,-100,0,0,100,30.02,29.78,37,16,56,0.00
2012-11-29,61,60,59,-100,-100,-100,0,0,100,30.02,29.81,29,21,42,0.00
2012-11-30,61,60,59,-100,-100,-100,0,0,100,29.99,29.75,22,9,46,0.00
2012-12-1,61,59,58,-100,-100,-100,0,0,100,30.03,29.85,22,10,34,0.00
2012-12-2,62,58,55,-100,-100,-100,0,0,100,30.11,29.70,21,11,41,0.00
2012-12-3,60,55,51,-100,-100,-100,0,0,100,30.21,30.11,12,-212,16,0.00
2012-12-4,59,58,57,-100,-100,-100,0,0,100,30.23,30.12,23,13,31,0.00
2012-12-5,60,59,56,-100,-100,-100,0,0,100,30.17,30.10,24,-14,29,0.00
2012-12-6,57,55,53,-100,-100,-100,0,0,100,30.16,30.10,29,16,35,0.00
2012-12-7,57,54,50,-100,-100,-100,0,0,100,30.16,30.09,24,11,29,0.00
2012-12-8,61,54,50,-100,-100,-100,0,0,100,30.13,30.05,17,-56,20,0.00
2012-12-9,59,56,51,-100,-100,-100,0,0,100,30.19,30.10,19,-6,24,0.00
2012-12-10,61,56,53,-100,-100,-100,0,0,100,30.24,30.11,12,-220,14,0.00
2012-12-11,56,54,52,-100,-100,-100,0,0,100,30.12,29.86,18,-7,24,0.00
2012-12-12,55,52,49,-100,-100,-100,0,0,100,29.92,29.84,23,14,31,0.00
2012-12-13,56,50,44,-100,-100,-100,0,0,100,29.94,29.87,18,-8,21,0.00
2012-12-14,54,51,48,-100,-100,-100,0,0,100,30.04,29.82,13,-10,17,0.00
2012-12-15,53,50,47,-100,-100,-100,0,0,100,30.06,29.97,21,-60,28,0.00
2012-12-16,57,54,51,-100,-100,-100,0,0,100,30.10,30.01,17,11,28,0.00
2012-12-17,58,55,52,-100,-100,-100,0,0,100,30.07,29.99,28,14,34,0.00
2012-12-18,52,50,49,-100,-100,-100,0,0,100,30.22,30.02,32,24,39,0.00
2012-12-19,54,50,44,-100,-100,-100,0,0,100,30.32,30.19,18,-19,25,0.00
2012-12-20,56,54,52,-100,-100,-100,0,0,100,30.20,29.95,28,20,39,0.00
2012-12-21,58,56,54,-100,-100,-100,0,0,100,29.96,29.82,29,16,44,0.00
2012-12-22,58,55,51,-100,-100,-100,0,0,100,30.05,29.81,19,9,36,0.00
2012-12-23,58,56,53,-100,-100,-100,0,0,100,30.04,29.85,23,13,45,0.00
2012-12-24,54,52,49,-100,-100,-100,0,0,100,30.22,30.03,14,-7,21,0.00
2012-12-25,54,52,49,-100,-100,-100,0,0,100,30.16,29.76,21,5,30,0.00
2012-12-26,54,53,50,-100,-100,-100,0,0,100,30.12,29.87,31,23,39,0.00
2012-12-27,53,52,51,-100,-100,-100,0,0,100,30.17,30.11,26,16,30,0.00
2012-12-28,52,51,47,-100,-100,-100,0,0,100,30.18,30.02,19,-57,21,0.00
2012-12-29,55,50,47,-100,-100,-100,0,0,100,30.09,30.01,19,10,23,0.00
2012-12-30,53,50,46,-100,-100,-100,0,0,100,30.20,30.06,16,-8,17,0.00
2012-12-31,54,50,46,-100,-100,-100,0,0,100,30.30,30.19,9,-172,12,0.00
2013-1-1,54,49,46,-100,-100,-100,0,0,100,30.29,30.21,13,-50,15,0.00